Wind_Speed
17 18 20 21 21 21 22 24 26 28 29 29 30 31 31 32 34 36 37 38 37 38 39 40 40 41 43 45 46 47 48 49 51 52 53 54 56 57 59 61 62 63 65 66 68 69 70 72 74 77 79 81 84 86 88 90 93 96 96 91 86 79 69 60 54 50 48 47 47 46 45 43 43 44 43 42 41 41 41 42 44 47 51 57 66 77
17 19 21 22 23 24 25 26 28 29 29 30 31 32 32 33 34 35 37 39 39 40 41 41 41 41 42 44 45 45 47 49 50 51 52 54 55 57 59 61 62 63 64 66 68 69 70 72 73 76 79 81 83 85 87 89 92 95 95 91 85 79 70 60 54 50 49 48 48 47 46 44 42 42 43 42 41 41 41 42 44 45 47 50 55 63
18 21 22 23 24 25 27 28 29 29 30 32 32 32 33 34 35 35 37 39 41 41 42 42 41 40 42 43 44 45 47 49 50 50 52 53 55 57 59 60 62 62 64 65 67 69 70 71 73 75 78 81 83 85 87 88 91 94 94 91 84 79 71 61 54 51 49 49 48 47 46 45 43 41 41 41 40 39 40 41 42 43 46 49 53 57
20 22 24 25 26 26 27 29 29 31 32 33 33 33 34 35 36 36 37 39 41 42 43 43 41 40 41 42 43 45 47 49 50 50 52 54 55 57 59 60 61 62 63 65 67 68 70 71 72 74 77 80 82 85 86 87 90 92 94 91 84 77 71 62 55 52 50 50 49 48 46 45 44 41 40 39 39 39 39 40 41 42 44 47 51 56
22 23 25 25 26 27 28 29 30 31 33 33 34 34 35 36 37 37 38 38 40 42 43 44 42 40 40 42 43 45 47 49 51 51 52 54 55 57 58 60 61 62 64 65 67 68 70 71 72 75 77 80 82 84 86 87 89 91 93 92 85 77 71 63 56 53 51 50 49 48 47 45 44 42 40 38 38 38 39 40 40 41 42 44 46 50
23 24 26 26 27 28 29 30 30 31 32 33 34 35 36 37 38 38 38 38 39 41 43 45 44 42 41 43 45 46 48 50 52 53 54 55 56 57 58 60 62 63 64 65 66 68 70 71 73 75 77 79 82 84 86 87 88 90 92 91 85 77 70 63 57 53 51 50 50 48 47 45 43 42 40 38 37 37 38 39 40 40 41 42 42 44
25 26 27 27 27 28 29 30 31 32 32 34 35 36 37 38 38 38 38 39 39 41 43 44 46 44 42 44 46 47 49 51 53 54 55 56 57 57 58 60 62 64 64 65 66 68 69 70 72 74 76 79 82 84 86 87 88 89 91 91 85 77 70 64 59 54 52 51 50 49 47 45 43 41 40 38 37 36 37 38 38 39 39 40 40 40
27 28 28 27 28 29 30 31 32 33 33 35 36 37 38 38 39 39 39 38 38 39 42 43 46 47 45 45 47 48 49 52 53 55 56 56 56 57 59 61 62 63 64 64 66 68 69 70 72 74 76 79 81 84 86 87 87 89 90 90 87 79 71 65 60 55 53 51 50 49 47 44 42 41 39 38 37 36 36 36 37 37 38 38 38 38
28 28 29 29 29 30 31 32 33 34 35 36 37 37 38 38 40 40 38 37 37 39 43 44 47 50 47 46 49 49 50 52 54 55 56 56 57 58 60 61 62 62 63 65 66 68 69 70 73 75 76 78 81 83 85 87 88 89 90 90 88 81 73 66 61 56 53 52 50 48 46 44 42 40 39 37 36 36 36 36 36 36 37 37 37 37
28 29 30 30 31 31 32 33 34 35 36 37 37 37 38 39 40 40 39 38 37 40 44 45 48 51 49 48 49 50 51 52 54 55 56 57 58 59 61 61 61 62 64 66 67 69 69 71 73 75 77 79 81 83 86 87 88 89 90 90 88 84 75 67 62 57 54 52 50 48 46 43 41 39 38 37 35 35 36 36 35 35 35 36 35 35
29 30 31 31 32 32 33 34 35 36 37 37 38 38 39 40 41 41 41 40 39 41 46 47 47 51 51 50 50 50 51 52 53 54 56 58 59 59 60 60 61 63 64 66 67 69 70 72 74 76 77 79 81 83 85 87 88 88 89 90 89 85 78 70 63 58 55 53 50 47 45 42 39 38 37 37 35 34 35 35 34 33 33 34 34 33
30 31 31 32 33 34 34 35 36 37 38 39 40 41 42 42 42 42 44 44 42 43 46 47 47 49 50 51 51 50 51 53 54 55 56 58 59 59 59 60 62 64 65 67 68 69 71 73 75 76 77 78 80 81 83 85 87 87 88 89 89 86 81 73 66 59 54 52 50 47 44 41 38 36 36 36 34 34 33 33 33 32 32 32 33 32
30 31 32 32 33 34 35 36 37 38 39 40 41 43 44 44 45 46 47 48 46 43 45 46 47 49 49 49 50 51 52 54 54 55 56 57 58 59 60 61 63 65 66 67 69 71 72 73 74 75 76 77 78 80 81 83 85 86 87 88 88 86 82 76 69 63 56 52 49 46 43 40 36 35 35 34 33 33 32 32 32 31 30 30 30 30
30 30 31 32 33 34 35 37 38 39 40 41 43 44 46 48 49 50 50 51 49 45 43 44 47 49 49 48 50 51 52 53 53 55 56 58 59 60 61 63 64 66 67 69 70 71 72 73 74 75 75 76 77 79 80 82 84 85 86 87 87 85 82 77 72 67 60 53 48 45 41 38 35 33 33 33 31 31 32 31 30 30 29 28 27 28
30 31 32 33 34 35 36 37 39 40 41 43 44 46 47 48 49 49 49 50 51 48 44 44 47 50 49 49 50 51 52 53 54 56 57 59 60 61 63 64 66 67 69 70 71 71 72 73 74 75 75 76 77 78 79 81 83 84 85 86 86 85 82 78 74 69 64 55 47 43 39 36 34 32 32 31 30 30 31 31 30 29 28 27 25 26
31 32 32 33 35 35 36 37 38 41 42 44 46 46 47 48 48 49 48 49 51 50 47 45 47 50 48 49 50 51 52 54 55 57 59 60 61 62 64 65 67 69 70 71 71 71 72 73 74 75 76 77 78 78 79 80 82 84 85 85 86 85 83 80 76 71 66 57 47 41 37 34 32 32 31 30 29 29 30 31 30 29 28 26 25 25
31 32 33 34 34 35 36 37 38 40 42 44 46 47 48 48 49 49 49 49 51 53 49 45 47 51 49 49 51 52 54 56 57 59 60 60 62 63 65 66 67 69 70 71 71 71 71 73 74 75 76 77 77 78 79 80 82 83 84 85 85 85 84 81 78 73 67 58 48 40 35 32 31 31 31 30 29 28 29 30 29 28 27 26 25 24
31 32 32 33 34 35 36 37 38 39 41 43 45 47 49 49 50 50 50 51 52 54 52 47 46 51 51 50 52 53 55 57 59 60 61 61 62 64 65 66 68 69 70 70 70 70 71 72 73 75 76 77 77 78 79 79 81 83 84 84 85 84 83 81 78 74 68 59 49 40 34 32 30 30 30 29 28 28 28 29 28 26 25 25 24 22
32 32 32 33 34 35 36 38 39 39 41 42 44 46 48 49 50 49 50 51 52 53 55 50 46 49 52 52 53 55 56 58 59 60 61 62 63 64 65 66 67 69 70 70 70 70 71 72 73 74 76 77 77 78 79 79 80 82 83 84 84 84 82 81 78 74 69 60 50 41 35 32 30 29 29 28 28 28 28 28 26 24 23 23 22 21
32 32 33 33 34 35 37 38 39 40 41 43 44 45 47 49 50 49 49 50 49 50 54 53 47 46 52 53 53 55 56 57 59 60 61 62 63 64 64 65 67 68 70 70 70 71 71 72 73 74 76 76 77 78 78 78 79 80 82 83 83 83 82 80 78 74 69 61 51 42 36 33 31 30 29 28 28 28 28 26 24 22 21 21 21 20
32 32 33 34 35 36 38 39 40 41 42 44 45 46 47 49 50 50 49 48 48 48 51 53 48 46 50 52 53 54 56 57 59 60 62 63 63 63 64 65 67 68 69 69 70 70 71 71 73 74 75 76 77 78 78 78 78 79 81 81 81 81 80 79 77 73 69 62 52 43 37 34 32 31 30 29 29 28 26 24 22 19 19 19 19 19
31 32 32 34 36 37 38 40 41 41 43 44 45 46 47 48 49 50 50 49 48 47 48 52 49 46 48 52 52 54 56 57 60 60 62 63 63 63 64 65 67 69 69 69 69 70 71 71 72 74 74 75 76 78 78 78 78 78 79 80 80 80 79 78 76 72 68 63 54 44 38 36 34 33 32 30 29 27 24 21 18 17 17 17 17 17
31 32 33 34 36 38 39 40 41 42 43 44 45 46 46 47 47 48 50 49 48 47 47 51 50 46 48 52 53 54 56 57 60 61 62 64 64 64 64 65 68 69 68 68 69 70 71 71 72 73 74 75 76 78 78 77 77 77 78 79 79 78 78 77 74 71 68 63 55 47 41 38 36 34 32 29 26 23 20 17 15 15 16 16 16 16
32 33 34 34 35 38 39 40 42 42 43 45 45 46 46 46 45 46 47 49 49 47 46 50 52 47 47 51 53 54 56 57 59 61 62 64 64 64 65 66 68 68 68 68 68 69 70 70 71 72 73 75 76 78 78 77 77 77 77 77 78 77 77 75 73 70 68 63 56 48 42 38 35 32 29 26 23 19 17 15 15 15 16 16 15 15
33 34 36 36 37 39 41 42 43 44 44 45 46 47 46 46 45 45 46 48 50 49 45 47 51 49 48 51 53 55 57 58 59 61 62 64 65 65 65 66 67 68 67 67 67 68 69 70 71 72 73 75 77 77 78 77 77 77 76 76 76 76 75 74 72 69 67 63 57 50 43 38 34 31 27 24 21 19 17 16 16 16 15 15 15 14
34 36 38 38 39 42 44 45 46 46 45 45 47 47 47 46 45 44 45 47 50 50 46 45 50 50 48 50 53 55 58 58 59 61 63 64 66 65 65 66 67 67 67 66 66 67 68 69 70 72 73 75 76 77 78 77 77 77 75 75 75 75 74 73 71 68 65 61 57 50 43 37 33 30 26 23 21 20 18 17 16 16 15 15 14 13
35 36 38 40 39 41 43 44 45 45 44 44 46 47 47 46 45 43 42 44 48 50 46 45 49 51 50 51 53 55 57 58 59 61 63 65 66 66 66 66 66 66 66 65 65 66 68 69 70 72 73 75 76 77 78 78 77 76 75 73 73 73 73 71 69 67 64 60 56 50 43 36 32 29 26 25 23 21 20 19 17 16 16 15 14 13
37 37 39 40 39 39 42 43 43 44 43 43 45 47 46 46 44 42 41 43 47 49 47 46 48 52 53 53 55 57 58 58 60 61 63 65 66 66 66 65 65 65 65 65 65 66 67 68 70 71 73 75 75 76 77 77 77 76 74 73 72 72 71 70 68 65 62 58 55 50 43 36 31 29 27 26 25 23 21 20 18 17 15 15 14 13
39 39 40 41 39 38 42 44 43 44 43 42 44 46 46 45 44 42 41 42 46 48 48 47 48 51 55 56 56 58 59 59 60 61 63 65 66 66 65 64 64 64 65 64 65 65 66 68 69 71 73 74 75 76 77 77 76 75 74 72 71 70 70 68 66 64 61 57 53 48 42 35 31 29 28 27 26 24 22 21 19 17 16 15 14 14
41 41 41 43 40 37 40 44 43 43 42 41 43 45 46 45 44 42 41 42 46 48 47 48 49 51 55 58 58 59 60 60 61 62 63 64 65 64 64 64 63 64 64 64 65 65 66 68 69 71 72 74 75 76 77 76 76 74 73 71 70 69 68 67 64 62 59 55 51 47 42 36 31 29 28 27 26 24 23 21 20 18 17 16 16 15
41 42 42 44 43 39 40 43 43 43 42 41 42 44 45 45 44 43 41 43 47 48 47 49 51 52 55 59 60 60 60 60 60 61 62 63 64 64 64 64 64 64 64 64 65 66 67 68 69 70 72 73 74 75 76 76 75 74 72 71 69 68 67 65 63 60 58 53 49 45 41 36 32 29 28 26 25 24 23 21 20 19 18 17 16 16
42 43 43 45 45 41 41 43 43 43 42 41 42 44 45 45 45 43 42 43 47 48 48 49 53 55 57 60 61 60 60 59 59 60 61 62 63 64 64 64 64 64 64 64 65 66 67 68 69 70 71 73 74 75 75 75 74 73 71 70 68 67 65 64 61 59 56 52 47 43 40 36 32 29 27 26 25 24 22 21 20 18 17 17 16 16
42 43 44 45 46 43 43 45 45 44 42 41 43 45 45 46 47 45 42 43 46 48 48 50 54 57 59 61 61 60 58 57 58 60 61 62 63 64 64 64 64 64 64 65 66 66 67 67 68 69 71 72 73 74 74 74 74 72 71 69 67 65 64 62 60 57 54 51 46 41 38 35 32 29 27 26 25 24 22 21 19 18 17 16 15 15
42 44 44 46 46 45 44 45 46 44 42 42 45 46 46 46 48 47 43 43 45 47 49 51 54 58 60 61 61 60 58 57 57 59 62 63 63 63 63 64 64 64 64 65 66 66 66 67 68 69 70 71 72 73 74 74 73 72 70 69 67 65 63 61 59 56 53 50 45 40 36 33 30 29 27 26 25 24 22 21 19 18 17 16 15 14
43 44 44 45 46 46 45 45 46 44 42 43 46 47 46 46 48 48 44 42 44 48 50 52 56 58 60 60 59 58 58 57 57 60 63 64 63 63 63 63 63 64 64 65 66 66 66 66 67 68 69 70 71 72 73 73 73 71 70 68 66 64 62 60 58 55 52 49 44 39 35 32 29 28 27 26 25 23 22 20 19 18 17 16 15 15
43 43 44 45 46 46 45 46 47 45 42 42 46 47 47 47 48 49 45 41 44 49 51 54 58 59 59 58 57 57 59 59 59 61 64 65 64 63 62 62 63 64 64 65 65 64 65 65 66 67 68 69 70 71 71 72 71 70 69 68 66 63 61 59 57 54 51 48 44 38 34 31 28 28 27 26 24 23 21 20 19 18 17 17 16 16
42 43 44 45 45 46 47 46 47 46 43 44 48 49 48 48 49 51 47 41 44 51 53 56 59 60 59 57 56 58 60 62 62 63 65 66 64 63 62 61 62 63 64 64 63 63 63 64 65 66 67 68 69 70 70 70 70 69 68 67 66 63 60 58 56 54 51 48 44 38 34 30 28 27 26 26 24 23 21 20 20 19 18 18 17 17
42 42 44 45 45 46 48 48 48 47 46 48 51 51 49 49 50 52 50 46 47 52 55 58 61 60 58 57 57 59 63 65 65 66 67 67 65 63 61 60 61 62 62 62 62 62 62 63 64 65 66 67 68 69 69 69 69 69 68 66 65 63 60 57 56 54 51 48 45 40 35 31 28 26 26 25 24 23 23 22 21 20 19 19 18 17
41 42 43 44 44 45 47 48 48 47 46 49 51 50 50 50 51 53 53 50 50 54 58 61 62 61 59 58 59 62 64 67 68 68 68 67 65 63 61 59 60 61 61 61 61 61 62 62 64 65 65 66 67 67 67 68 68 68 67 66 64 62 59 56 55 53 51 49 46 42 37 33 29 27 25 25 24 24 23 23 22 21 20 19 18 17
41 42 43 44 44 45 47 48 48 46 46 49 51 49 50 51 52 54 55 54 54 58 61 63 63 61 60 60 62 63 65 68 70 69 68 68 66 63 61 59 59 59 59 59 60 60 61 62 63 64 65 66 66 66 66 66 66 66 66 65 64 62 59 57 54 52 51 49 47 44 40 35 31 28 26 24 24 23 23 22 22 21 21 20 19 18
42 43 43 44 45 46 47 48 48 46 46 48 49 49 50 52 53 55 57 57 58 61 63 64 63 61 61 62 63 64 66 68 70 70 69 68 66 64 61 60 59 58 58 58 58 59 60 62 62 63 64 65 65 66 65 65 65 65 65 65 63 61 59 57 54 52 50 49 48 45 42 37 33 29 27 25 24 23 23 22 21 21 20 20 19 19
42 44 45 46 47 48 48 49 49 47 46 47 48 48 50 52 54 56 58 58 59 62 64 64 63 62 62 64 64 66 67 68 70 71 70 69 67 64 62 60 59 58 57 57 57 58 59 61 62 63 63 64 65 65 65 64 64 64 64 64 63 61 59 57 55 52 50 49 48 46 43 40 35 31 28 26 25 24 23 22 21 20 20 19 19 19
42 45 47 47 48 48 48 48 48 47 46 46 48 49 50 52 55 57 59 59 60 62 64 64 63 63 64 65 66 68 68 69 71 71 70 68 66 64 62 60 59 57 56 56 56 57 58 60 61 62 63 64 64 65 65 64 63 63 63 63 63 61 59 57 56 53 50 48 47 46 44 42 38 34 31 28 26 24 24 23 22 21 20 19 18 18
42 45 47 47 47 47 46 45 44 45 46 46 47 48 49 52 55 59 61 61 62 63 65 66 65 65 66 67 69 70 70 71 71 71 69 67 64 63 62 61 59 57 56 56 56 56 57 59 61 62 63 63 64 65 65 64 63 63 62 62 62 61 59 57 56 53 50 48 46 46 45 43 40 36 33 30 28 25 24 23 23 22 21 20 19 18
43 45 46 44 43 43 42 41 41 43 44 45 46 48 50 53 56 59 62 63 64 64 65 66 66 66 67 68 70 71 72 72 70 68 67 65 63 62 61 60 58 57 57 56 56 56 57 58 60 62 63 64 65 65 65 65 63 62 61 61 61 61 59 56 55 54 51 48 46 45 44 43 41 38 35 32 30 27 26 24 23 23 22 21 20 19
42 43 42 41 40 39 38 38 42 44 43 44 46 49 52 55 57 60 62 63 64 64 64 66 67 67 68 69 71 72 71 69 67 65 64 63 62 61 60 59 58 57 57 57 57 57 57 58 60 61 63 64 65 66 65 65 63 62 61 60 60 60 59 57 55 53 52 49 46 44 43 43 41 40 37 34 31 29 28 26 25 24 23 22 21 20
39 39 40 39 39 39 38 39 43 45 44 44 47 50 54 57 59 61 63 63 64 65 66 67 68 69 70 71 71 71 68 65 64 64 63 62 62 61 59 58 58 58 57 57 58 58 58 59 60 61 63 64 65 65 65 64 63 62 60 59 59 59 59 57 55 53 52 50 47 44 43 42 41 40 38 35 33 31 29 28 27 25 24 24 23 22
38 39 41 41 40 42 43 43 46 47 46 46 49 53 56 58 59 61 63 64 66 67 68 69 70 71 71 69 68 67 65 64 64 65 63 62 61 60 59 58 58 58 58 58 58 59 60 60 60 62 63 64 65 65 65 64 63 62 60 59 58 58 58 57 56 53 52 50 48 45 42 41 41 40 39 37 35 32 30 28 28 27 26 25 25 23
40 42 44 45 45 45 47 48 50 51 49 48 51 54 57 59 61 63 64 65 67 68 69 70 70 70 69 68 67 67 66 65 65 64 63 62 61 60 59 58 58 58 58 59 59 60 61 61 61 62 64 64 64 63 63 63 63 61 60 59 58 57 57 57 56 54 52 50 48 46 42 41 40 39 39 38 36 34 31 29 28 28 28 27 27 26
43 44 46 49 49 49 50 51 54 55 55 54 56 58 60 62 64 65 66 67 69 70 71 71 71 70 69 68 67 67 66 65 64 63 63 62 61 60 60 59 58 58 59 60 60 60 61 62 63 63 64 64 63 62 62 62 62 62 61 60 59 58 57 56 56 55 52 50 49 47 43 40 39 39 38 38 37 35 33 31 29 28 28 28 29 28
44 46 48 50 51 52 52 54 55 57 58 59 60 61 63 65 66 68 69 70 71 72 73 73 72 71 69 67 65 65 65 64 63 63 62 62 61 61 61 60 60 60 60 61 61 61 62 63 63 63 63 63 62 61 61 61 61 61 61 60 59 58 57 56 56 55 53 51 49 47 44 41 39 38 38 37 37 36 34 32 30 29 28 27 28 29
Wind_Direction
353 351 353 355 351 345 345 345 345 346 345 342 341 341 338 335 335 336 335 336 337 335 333 335 337 335 331 329 329 330 332 332 332 331 330 329 330 331 334 336 337 338 338 338 338 338 340 340 341 342 341 340 339 339 341 342 343 344 344 345 345 342 338 332 327 322 317 314 313 311 310 307 304 301 298 293 288 283 278 275 271 268 264 259 253 249
350 352 353 350 348 348 347 347 347 346 343 342 342 340 337 337 337 336 337 337 337 336 335 336 337 336 333 331 331 333 335 335 334 333 331 331 332 334 335 337 337 338 337 338 337 338 340 341 342 342 341 340 340 339 341 342 343 344 345 345 345 343 339 333 327 323 318 316 315 313 311 309 306 303 299 295 291 286 282 278 274 272 269 265 260 255
350 352 351 348 348 349 347 347 346 344 343 342 342 340 338 338 338 338 339 337 337 337 335 335 336 336 334 332 333 336 338 338 337 335 333 334 336 337 337 337 337 337 337 337 337 339 341 342 342 342 341 341 340 340 341 343 344 345 345 345 345 343 341 335 328 323 320 318 317 316 314 311 309 306 302 298 294 290 287 283 280 276 272 268 264 260
350 351 349 348 347 347 347 347 345 344 344 343 341 340 339 339 339 341 340 338 337 336 334 333 335 337 335 333 335 338 339 340 339 337 337 338 339 339 338 338 337 337 338 338 338 339 341 342 342 342 342 341 340 340 341 343 344 345 345 345 346 344 341 337 330 325 322 320 319 318 315 313 311 308 304 300 296 293 290 288 286 284 280 275 269 263
348 349 348 346 346 347 346 346 345 345 343 341 340 340 340 341 341 342 341 340 337 335 333 333 334 338 336 334 337 339 340 341 340 339 340 340 341 340 339 338 337 338 339 339 339 340 342 342 343 343 342 341 340 340 341 343 344 345 345 346 347 345 342 338 332 326 323 321 319 318 316 314 312 310 306 302 298 295 293 292 292 292 291 287 279 269
344 346 346 345 344 345 345 344 345 345 342 341 341 342 343 343 342 341 341 341 339 334 332 332 334 338 339 336 338 340 341 342 342 341 342 342 342 341 340 339 339 341 341 339 339 341 342 342 343 343 342 341 341 341 342 343 344 345 346 346 347 346 343 339 333 327 323 320 319 318 316 314 312 310 308 304 299 296 295 295 296 297 299 299 294 283
342 344 343 342 343 343 343 343 344 343 342 342 343 344 345 345 343 341 341 341 339 334 332 333 333 338 341 337 339 341 342 343 343 343 343 343 343 342 341 341 342 342 341 340 340 342 342 342 343 343 342 341 341 341 342 343 344 346 347 347 347 347 344 340 335 329 324 321 318 317 316 314 312 310 308 305 302 298 297 297 298 300 302 305 305 298
341 340 338 340 342 342 341 342 341 341 343 344 344 345 345 344 343 343 342 340 339 335 333 334 333 337 342 340 340 342 342 344 344 343 344 344 343 342 342 344 344 343 341 340 341 342 343 342 343 344 343 342 342 342 342 343 344 346 348 348 348 348 345 341 336 331 326 322 319 317 316 314 312 311 310 307 303 301 299 299 300 302 303 306 310 309
337 335 335 339 340 339 339 340 340 341 344 344 345 345 344 344 344 343 341 339 339 337 336 338 336 338 344 343 341 343 343 344 345 344 344 344 344 344 345 345 344 342 342 342 343 343 343 343 344 344 343 342 342 342 342 343 345 347 348 349 348 348 346 343 338 332 327 323 320 317 316 314 313 311 310 309 305 302 301 302 303 304 306 308 310 313
333 333 334 337 336 337 338 338 339 341 343 343 344 345 344 345 345 343 341 340 342 341 340 341 338 338 344 344 343 344 344 344 345 344 344 344 345 346 346 345 344 343 343 344 344 343 343 344 345 345 343 342 342 342 342 344 345 347 348 349 348 348 347 344 340 334 328 325 322 319 316 315 313 311 311 310 306 303 302 304 306 307 308 310 311 313
330 332 333 334 334 335 337 337 339 341 342 343 343 344 345 346 344 343 342 342 345 345 343 344 340 337 343 345 343 344 344 344 345 345 344 345 346 347 346 345 344 344 345 346 345 344 344 346 346 345 343 342 341 342 343 344 346 347 348 349 349 348 348 346 342 336 330 326 323 320 317 315 313 312 311 310 308 305 303 305 307 310 311 311 311 313
328 330 331 332 332 335 336 336 339 341 342 342 343 345 345 344 343 343 343 343 347 348 345 345 341 338 343 345 343 344 344 345 346 345 345 346 347 347 346 345 345 345 346 347 346 345 346 347 347 345 343 341 341 342 343 344 345 346 347 349 349 349 348 347 344 339 333 327 324 322 319 316 314 312 311 311 309 307 305 306 308 311 313 312 312 314
327 328 329 330 331 334 335 336 339 340 341 342 343 344 343 343 343 344 344 344 348 351 347 344 340 339 344 344 342 345 345 346 346 344 345 346 347 347 346 346 346 346 347 347 346 347 348 348 346 344 342 341 341 342 343 344 345 346 347 349 349 349 349 347 345 341 336 330 325 323 321 317 315 313 312 312 311 309 308 307 309 312 314 314 313 314
326 327 327 328 331 333 334 337 338 339 340 341 343 344 343 343 343 343 345 344 346 349 348 344 339 339 344 343 342 346 346 345 344 344 345 346 346 346 346 347 347 347 347 347 347 347 348 347 346 344 342 341 341 342 343 344 345 346 348 349 350 350 349 348 346 342 339 334 328 325 323 319 317 314 313 314 312 311 310 310 310 313 315 316 314 314
325 326 327 329 330 332 335 337 338 338 339 341 343 343 343 343 342 343 344 343 343 345 346 345 340 339 343 343 343 346 345 344 344 344 345 345 346 346 346 347 348 347 348 347 347 347 347 347 345 344 342 342 342 342 343 344 345 346 348 349 350 350 350 349 347 344 341 337 332 328 326 322 318 315 315 316 314 311 311 312 312 313 316 317 316 315
325 326 327 329 330 333 335 337 337 338 339 341 342 342 341 341 341 342 342 342 341 342 344 346 341 338 342 343 343 345 344 343 345 345 345 345 345 346 347 348 348 347 347 347 347 346 346 346 346 344 343 343 342 342 343 344 345 346 347 349 350 351 351 350 349 347 344 341 336 332 329 325 320 317 318 319 315 312 312 312 313 313 315 318 318 318
325 325 327 328 330 333 335 336 337 338 338 340 340 339 340 340 340 340 341 341 341 340 343 347 341 338 341 343 343 344 343 344 345 345 345 345 345 346 347 348 348 347 347 346 346 346 346 346 346 344 344 344 343 343 343 344 345 346 347 349 351 352 351 351 350 349 347 344 340 335 332 328 324 321 321 321 317 314 313 312 312 313 315 318 320 320
324 325 326 328 330 333 334 335 336 337 338 338 338 338 338 339 339 339 340 341 340 339 341 346 344 338 340 343 343 343 344 345 345 344 344 345 345 346 348 348 347 347 346 346 346 346 346 346 345 345 345 345 344 343 344 344 345 347 348 349 351 352 352 352 351 351 349 346 343 339 334 330 328 326 324 322 319 316 314 313 312 312 315 318 320 322
323 324 326 328 330 332 333 334 335 336 337 337 336 337 337 338 339 340 340 340 340 339 339 344 347 340 339 343 343 342 344 344 344 345 344 344 345 347 347 347 346 346 345 346 346 346 346 346 346 346 346 346 345 344 344 344 345 347 348 349 351 352 353 352 352 352 351 349 346 343 337 333 331 329 327 324 321 318 316 314 313 313 316 319 321 322
323 324 326 328 330 331 332 332 334 335 335 335 335 336 337 338 339 339 339 339 340 340 337 340 347 343 339 343 342 341 343 343 344 345 344 344 346 346 346 346 345 345 345 346 346 346 346 346 346 346 346 346 346 346 345 345 346 348 349 350 351 352 353 353 354 354 353 351 349 346 341 337 335 333 331 327 322 319 316 315 314 314 317 321 322 324
322 324 326 328 329 330 330 331 333 334 333 334 335 336 337 338 338 338 338 338 339 340 337 337 345 346 340 340 341 340 342 342 343 344 344 344 345 344 345 345 345 346 346 346 347 346 346 347 346 346 346 346 347 347 346 346 346 348 349 349 351 352 353 354 354 355 355 353 351 349 344 340 338 336 332 328 324 320 318 317 317 317 321 324 324 326
322 324 326 326 326 327 329 330 331 332 332 332 334 336 337 338 338 337 337 337 337 340 338 335 342 347 340 338 340 339 341 342 342 344 344 344 344 344 344 344 345 346 346 346 347 346 347 347 346 346 346 346 347 348 347 347 347 348 349 349 351 352 353 354 355 356 356 355 353 351 347 342 339 336 333 330 327 324 322 322 322 324 327 329 330 330
322 323 324 325 325 326 328 328 329 330 330 332 333 335 337 338 338 337 336 336 335 339 340 335 338 346 341 338 339 338 339 341 341 343 344 343 343 343 343 344 345 346 347 347 347 347 347 346 346 346 346 347 348 348 348 348 347 348 349 349 350 352 354 355 356 357 358 356 355 352 349 345 342 340 339 337 336 334 334 334 334 335 336 336 336 335
320 321 322 324 324 323 325 326 327 329 330 331 333 335 337 337 337 337 335 334 333 337 340 335 336 343 341 337 338 337 338 340 341 342 343 341 341 342 343 344 345 346 347 347 347 347 346 346 346 346 347 348 349 349 349 349 348 348 349 349 351 352 354 355 356 358 359 358 356 354 352 350 348 347 347 348 351 353 354 352 348 347 345 342 342 340
320 321 321 323 323 322 323 324 326 329 330 331 332 334 336 336 337 336 335 333 331 335 340 335 334 340 340 337 338 337 338 341 341 341 341 340 341 341 342 344 345 346 347 347 347 347 346 346 346 346 347 349 349 349 349 349 349 349 349 349 351 352 354 355 357 359 0 359 358 357 356 355 354 354 356 0 4 6 5 0 356 353 350 347 345 344
319 320 320 322 323 323 323 324 326 328 330 331 330 332 334 335 335 336 335 333 330 334 339 335 332 337 339 337 338 337 338 340 339 339 340 339 340 341 342 344 345 346 346 346 347 347 346 346 346 346 348 349 349 349 349 350 349 349 349 350 351 353 354 355 357 359 1 1 360 359 359 360 360 359 1 5 7 7 4 360 357 355 352 349 348 347
318 318 319 320 322 322 322 323 324 326 328 329 329 331 333 333 334 335 334 332 329 331 337 335 332 335 337 337 338 337 337 339 338 338 339 339 339 341 341 343 344 345 345 346 347 347 346 346 346 347 349 350 349 349 349 350 350 350 350 350 351 353 354 355 357 360 2 2 1 1 2 4 4 3 3 4 5 4 1 358 357 355 353 352 352 350
316 317 317 318 320 320 320 321 323 324 327 329 328 329 331 331 332 334 334 331 327 329 335 335 332 334 336 337 338 338 337 337 338 338 339 339 339 340 341 342 343 344 344 345 346 347 346 346 346 347 349 350 349 349 349 350 350 350 350 350 351 353 355 356 357 360 2 3 3 3 4 7 7 4 2 3 3 2 0 358 357 357 355 355 355 355
315 316 316 317 319 320 319 320 322 323 327 329 327 327 329 330 330 333 334 331 327 328 333 334 334 335 336 336 338 338 337 338 338 338 339 339 339 339 339 340 342 343 344 345 346 347 347 347 347 348 349 350 349 349 349 350 350 350 350 350 351 353 355 356 357 359 2 3 4 4 6 8 7 4 3 4 3 3 2 360 358 358 358 358 359 0
314 315 315 315 318 319 318 319 321 322 325 328 326 325 327 328 329 332 335 332 327 328 332 334 335 337 336 336 338 338 337 338 339 338 339 339 339 338 338 339 341 342 343 344 346 346 347 347 348 349 349 349 349 349 349 349 350 350 351 351 351 353 355 356 357 359 2 4 5 6 7 8 7 4 4 5 6 6 4 2 1 1 2 3 5 7
313 313 314 314 317 319 318 318 319 321 324 326 325 324 325 327 328 332 335 332 327 328 333 334 334 337 336 335 336 337 338 338 338 338 338 338 338 337 337 338 340 341 342 344 345 346 347 347 348 349 349 349 349 349 349 349 350 351 351 351 352 352 354 356 357 358 1 4 5 7 8 9 7 5 4 6 7 7 5 4 4 5 7 10 12 14
312 313 314 314 316 318 317 317 318 320 324 326 324 323 325 326 328 331 335 333 328 328 332 334 335 336 336 335 335 336 337 338 337 336 336 337 337 337 337 337 339 340 342 344 345 346 347 347 348 349 349 349 349 349 348 348 349 351 351 351 352 352 354 356 356 358 0 3 5 7 10 11 10 6 3 4 6 6 6 6 7 9 13 15 17 19
311 312 313 313 315 318 317 317 318 320 324 325 322 323 325 326 327 329 334 333 329 329 332 334 335 335 335 334 334 334 335 336 336 335 335 336 336 336 337 337 338 340 341 343 345 346 347 347 348 348 348 348 349 349 348 348 348 350 352 352 352 352 353 355 356 357 359 2 3 6 10 14 14 11 8 8 8 8 7 7 8 11 14 15 16 18
311 312 313 313 315 317 317 317 318 320 324 324 322 323 326 326 325 327 333 334 330 329 332 333 333 334 334 333 333 332 333 334 334 333 333 335 336 336 336 336 337 339 341 343 344 345 346 347 348 348 348 348 349 349 348 347 348 350 352 352 352 352 352 354 356 357 358 0 2 3 8 13 16 15 15 15 15 13 12 11 11 11 12 14 15 16
312 313 313 313 314 317 317 317 317 321 326 324 321 323 325 324 324 325 332 336 331 329 331 331 332 333 332 331 331 330 330 331 332 332 332 334 336 336 336 336 336 338 340 342 344 345 346 347 347 347 348 348 349 349 348 347 347 349 351 352 351 352 352 353 355 356 357 359 360 0 3 9 12 13 14 16 17 17 16 16 16 16 16 16 18 19
312 313 313 313 314 316 316 317 318 322 326 322 319 321 324 324 324 324 331 337 332 328 330 330 331 332 331 329 329 328 327 329 331 332 332 334 335 335 336 336 336 338 340 342 343 344 345 346 347 347 347 348 349 348 347 346 346 348 350 352 351 351 352 352 354 355 356 357 358 357 357 1 6 8 10 11 13 13 14 14 16 16 15 15 17 18
312 312 312 313 314 315 315 316 318 322 325 320 319 323 325 325 325 324 328 334 332 328 329 330 330 331 329 327 328 327 326 327 330 331 332 333 335 335 335 336 336 337 340 341 343 344 344 345 346 346 347 348 348 348 347 346 346 347 349 351 351 351 351 352 353 354 355 356 356 355 353 354 358 1 4 5 6 6 6 7 8 8 7 6 7 7
312 312 312 313 315 315 315 317 320 323 324 321 321 325 326 326 326 324 325 330 330 327 328 329 329 329 327 326 327 327 326 327 329 331 332 334 335 335 335 336 336 338 339 340 342 343 344 345 345 345 346 347 347 348 347 346 346 346 348 350 351 350 351 351 352 353 355 355 355 354 351 349 349 352 356 359 359 359 359 360 0 0 359 358 357 355
312 312 313 313 314 314 315 318 322 324 323 321 322 326 326 325 326 324 324 327 328 327 327 328 328 328 326 326 326 326 326 327 329 332 333 334 335 335 335 336 337 338 339 340 341 342 343 344 344 345 346 346 347 347 346 346 346 346 347 349 350 350 350 351 351 352 353 354 354 353 350 347 344 343 347 351 353 354 355 355 355 355 354 353 352 350
313 313 313 313 314 314 316 319 322 323 322 321 323 326 325 325 325 324 324 326 327 327 327 327 327 326 325 324 325 326 326 327 329 331 333 333 334 335 335 336 337 338 339 340 341 342 342 343 344 344 345 345 346 346 346 346 346 345 346 348 349 349 349 350 351 351 351 353 353 352 350 347 343 339 338 341 345 347 349 351 351 351 350 350 350 349
313 313 313 313 314 315 318 320 323 323 322 322 324 325 324 324 324 323 323 324 325 325 325 325 325 324 323 323 323 324 326 327 328 330 331 332 333 334 335 336 337 338 339 340 341 341 341 342 343 343 344 344 345 345 346 345 345 345 345 346 348 348 348 349 350 350 350 351 351 351 349 346 343 338 334 333 335 339 342 345 347 347 348 348 348 349
313 313 313 314 316 318 321 323 324 324 324 324 325 324 323 323 322 321 320 321 322 322 322 322 322 322 321 321 322 323 324 326 327 329 330 331 332 333 334 335 336 338 338 339 340 340 340 340 341 342 342 343 344 344 345 345 345 345 345 345 346 347 347 348 349 349 349 349 349 349 348 346 343 338 333 329 328 330 333 336 340 342 344 345 347 347
314 313 314 317 319 321 324 327 326 324 325 325 324 322 322 322 319 317 317 318 320 320 320 320 321 321 321 321 322 322 323 325 327 328 329 329 330 331 332 334 335 337 337 338 338 339 339 339 340 340 341 341 342 343 344 344 344 344 344 344 344 345 346 346 347 348 348 348 347 348 347 346 343 339 334 329 325 324 325 327 330 334 336 339 342 343
314 314 316 320 322 323 326 328 324 321 323 323 322 322 321 318 314 313 315 317 319 319 319 319 320 321 321 321 321 321 323 325 326 327 327 328 329 330 331 333 334 335 336 337 337 337 338 338 338 338 339 340 341 342 343 343 343 343 344 343 343 343 344 345 346 346 347 346 346 346 345 345 343 340 335 330 325 321 319 320 322 324 327 330 333 336
314 316 320 322 322 323 327 326 319 317 320 321 322 321 316 312 311 312 314 316 317 318 318 318 319 319 320 320 320 320 322 324 325 325 325 327 328 328 329 331 333 334 334 335 335 336 336 337 337 336 337 338 339 340 341 341 341 342 343 343 342 341 342 344 344 344 345 345 345 344 343 343 343 341 337 332 326 320 316 315 315 317 319 321 324 327
317 319 320 321 321 323 325 321 315 315 319 320 319 315 310 310 311 312 313 314 316 317 317 317 317 318 318 318 318 319 321 323 323 323 324 325 325 326 328 330 331 332 333 333 333 334 335 335 335 335 335 336 337 338 339 340 340 340 341 342 342 340 340 341 342 343 344 344 344 342 341 341 341 340 338 334 328 321 315 310 309 310 311 313 315 318
321 320 319 321 321 320 320 317 314 314 317 317 313 310 308 310 311 311 312 314 316 317 317 316 317 317 318 318 318 319 320 322 322 321 322 323 324 326 328 329 329 330 330 331 331 332 333 333 333 333 333 334 335 336 337 338 338 338 339 340 341 340 339 339 340 341 342 342 342 341 340 339 339 339 338 336 331 324 317 309 305 304 304 305 307 309
322 320 318 318 318 317 317 316 313 312 313 313 310 308 309 310 310 312 314 315 316 316 316 316 316 316 317 317 318 318 320 321 321 320 322 323 325 326 327 327 328 328 328 328 329 330 330 330 331 331 331 332 333 334 335 336 336 337 337 338 339 339 338 337 338 339 340 340 341 340 338 337 337 337 337 336 334 329 321 312 304 300 298 298 299 300
320 319 317 316 316 317 316 314 312 311 312 311 309 308 310 312 313 314 315 315 315 314 314 315 315 316 317 317 318 318 319 320 320 321 322 323 324 324 325 326 326 326 326 326 327 327 327 327 327 329 329 330 331 332 333 334 335 335 336 336 337 337 337 336 336 336 337 338 339 339 337 335 334 334 335 335 335 332 326 318 308 300 295 292 291 292
317 317 316 315 316 316 315 313 312 313 314 314 313 313 314 315 315 315 315 314 314 314 315 315 316 316 316 317 318 318 319 320 320 321 321 322 322 322 323 323 323 324 324 325 324 324 324 323 324 326 328 328 329 330 331 332 333 334 334 334 334 335 336 335 334 334 335 336 337 337 336 334 332 332 332 333 333 333 330 325 316 306 297 290 287 287
316 317 316 315 315 315 314 313 312 313 314 315 315 315 315 315 314 315 315 315 315 315 315 316 316 315 316 317 319 319 319 319 319 319 318 319 319 319 320 321 321 321 322 322 322 321 321 321 322 324 326 326 327 328 330 331 331 332 332 332 332 333 334 333 333 332 332 333 334 335 334 333 331 329 329 330 331 332 331 328 323 314 305 295 287 283
Height
5819 5817 5815 5813 5813 5811 5809 5807 5804 5801 5799 5797 5794 5791 5788 5786 5782 5778 5774 5771 5769 5766 5762 5759 5757 5753 5749 5744 5740 5737 5732 5727 5722 5716 5711 5706 5701 5694 5688 5681 5673 5666 5658 5652 5645 5638 5631 5622 5612 5602 5594 5586 5576 5566 5556 5546 5535 5523 5511 5500 5490 5481 5473 5466 5460 5456 5451 5447 5444 5441 5439 5437 5433 5430 5428 5426 5425 5424 5423 5422 5421 5421 5422 5423 5423 5424
5818 5816 5814 5812 5811 5809 5806 5804 5801 5799 5797 5794 5792 5789 5786 5783 5780 5776 5772 5768 5765 5762 5758 5755 5754 5750 5745 5741 5736 5732 5728 5723 5718 5712 5707 5701 5695 5689 5682 5674 5668 5661 5654 5647 5640 5633 5625 5616 5607 5598 5590 5581 5572 5563 5553 5542 5530 5518 5506 5495 5485 5476 5469 5462 5456 5451 5446 5442 5438 5435 5432 5430 5428 5424 5421 5419 5418 5416 5415 5414 5414 5413 5413 5413 5413 5412
5817 5814 5813 5811 5809 5806 5804 5802 5799 5797 5795 5792 5789 5787 5783 5780 5777 5774 5770 5765 5761 5758 5754 5752 5751 5748 5742 5737 5733 5729 5724 5719 5714 5709 5703 5696 5690 5683 5676 5669 5663 5657 5650 5643 5636 5628 5620 5611 5603 5595 5586 5577 5568 5558 5548 5537 5526 5514 5503 5492 5482 5472 5464 5458 5452 5447 5442 5437 5433 5429 5426 5423 5421 5419 5415 5412 5410 5409 5408 5406 5406 5405 5404 5404 5403 5402
5815 5813 5811 5809 5807 5805 5802 5800 5797 5795 5792 5789 5787 5784 5781 5778 5774 5771 5767 5763 5758 5754 5751 5748 5747 5745 5740 5734 5730 5725 5720 5715 5710 5704 5698 5691 5685 5678 5671 5664 5659 5653 5646 5639 5631 5623 5615 5607 5600 5591 5582 5573 5564 5554 5544 5533 5522 5511 5500 5489 5479 5469 5460 5453 5447 5442 5437 5432 5428 5424 5420 5416 5414 5412 5409 5406 5404 5402 5400 5399 5398 5396 5395 5394 5393 5392
5813 5811 5809 5807 5805 5803 5800 5798 5796 5793 5790 5788 5785 5782 5779 5775 5771 5768 5765 5761 5756 5752 5748 5745 5743 5742 5736 5730 5726 5721 5716 5711 5705 5699 5693 5686 5679 5672 5666 5661 5655 5649 5641 5634 5626 5617 5610 5602 5595 5586 5577 5569 5560 5550 5539 5529 5518 5507 5496 5485 5475 5465 5455 5448 5442 5436 5431 5427 5423 5419 5415 5411 5408 5405 5403 5400 5398 5395 5393 5391 5390 5388 5386 5384 5382 5381
5812 5810 5808 5805 5803 5801 5799 5797 5794 5792 5789 5786 5783 5780 5776 5772 5768 5765 5762 5758 5754 5749 5745 5741 5738 5737 5733 5726 5722 5717 5711 5705 5699 5693 5686 5680 5674 5668 5662 5657 5650 5643 5636 5628 5621 5613 5605 5598 5589 5581 5573 5565 5555 5545 5534 5524 5515 5503 5491 5480 5470 5460 5451 5444 5438 5432 5426 5422 5418 5414 5410 5407 5403 5400 5396 5394 5392 5390 5387 5384 5383 5380 5377 5375 5372 5370
5810 5808 5806 5804 5802 5799 5797 5795 5792 5790 5788 5784 5780 5777 5773 5769 5765 5762 5758 5755 5752 5747 5742 5738 5733 5732 5729 5722 5717 5712 5706 5700 5694 5687 5681 5675 5670 5665 5659 5652 5645 5638 5631 5625 5617 5610 5602 5594 5586 5578 5569 5560 5550 5540 5530 5520 5511 5500 5488 5476 5466 5456 5447 5439 5433 5428 5422 5417 5412 5408 5405 5401 5398 5395 5391 5388 5385 5383 5381 5379 5376 5374 5371 5368 5364 5361
5808 5806 5804 5802 5800 5797 5795 5793 5791 5788 5785 5781 5778 5774 5770 5767 5763 5759 5756 5753 5750 5745 5740 5735 5729 5726 5724 5718 5712 5707 5702 5696 5689 5683 5677 5672 5667 5662 5655 5648 5640 5634 5628 5622 5614 5606 5598 5590 5582 5574 5564 5555 5546 5536 5526 5517 5507 5496 5484 5471 5461 5452 5444 5435 5428 5422 5416 5412 5407 5403 5399 5395 5392 5389 5386 5383 5379 5377 5375 5373 5370 5368 5365 5362 5358 5354
5806 5804 5802 5800 5798 5796 5793 5791 5788 5785 5782 5779 5775 5772 5768 5765 5761 5757 5754 5750 5747 5742 5737 5732 5725 5720 5717 5712 5707 5702 5697 5691 5686 5680 5674 5669 5664 5657 5650 5643 5637 5631 5625 5618 5610 5602 5594 5586 5577 5568 5559 5550 5541 5532 5522 5512 5501 5490 5479 5467 5457 5448 5440 5432 5424 5417 5411 5406 5402 5397 5393 5390 5386 5383 5380 5377 5374 5371 5369 5367 5364 5361 5358 5355 5352 5348
5805 5803 5800 5798 5796 5794 5791 5789 5786 5782 5779 5776 5773 5770 5766 5762 5758 5755 5751 5747 5744 5738 5732 5726 5720 5714 5712 5708 5702 5697 5692 5687 5682 5676 5671 5665 5659 5652 5645 5639 5633 5628 5621 5613 5605 5598 5590 5582 5572 5563 5554 5545 5536 5527 5517 5506 5495 5485 5475 5465 5455 5445 5437 5428 5420 5413 5406 5401 5396 5391 5388 5384 5381 5377 5374 5372 5369 5366 5363 5361 5359 5356 5353 5350 5347 5343
5804 5801 5798 5796 5794 5791 5789 5786 5783 5780 5777 5774 5771 5767 5763 5759 5756 5752 5748 5744 5739 5734 5727 5722 5715 5709 5706 5702 5697 5693 5689 5684 5679 5672 5667 5661 5655 5648 5642 5636 5631 5624 5617 5609 5601 5594 5586 5576 5567 5558 5549 5540 5531 5522 5512 5502 5491 5482 5472 5463 5453 5443 5434 5425 5417 5408 5401 5394 5389 5386 5382 5379 5376 5372 5369 5366 5364 5361 5359 5356 5353 5351 5348 5345 5342 5339
5802 5800 5797 5795 5792 5789 5786 5783 5780 5777 5774 5771 5767 5763 5759 5756 5753 5749 5744 5739 5734 5729 5723 5718 5712 5706 5702 5698 5694 5690 5685 5680 5674 5668 5663 5657 5651 5645 5640 5634 5628 5620 5613 5605 5598 5590 5580 5571 5562 5554 5546 5538 5529 5520 5510 5500 5490 5479 5469 5459 5450 5440 5430 5421 5413 5405 5398 5390 5384 5380 5376 5373 5371 5368 5364 5361 5359 5356 5354 5351 5349 5347 5344 5341 5337 5334
5801 5798 5795 5793 5790 5787 5784 5780 5777 5774 5771 5768 5764 5760 5756 5753 5749 5744 5739 5734 5730 5725 5719 5714 5709 5705 5702 5696 5691 5687 5681 5676 5671 5666 5660 5654 5649 5643 5637 5631 5623 5616 5608 5601 5594 5585 5576 5567 5560 5552 5544 5536 5527 5517 5508 5498 5488 5478 5467 5456 5446 5436 5425 5416 5407 5400 5393 5387 5380 5375 5371 5368 5365 5363 5360 5357 5354 5352 5349 5347 5345 5342 5340 5337 5333 5330
5799 5797 5794 5791 5788 5785 5782 5778 5775 5771 5768 5764 5760 5756 5751 5747 5742 5738 5734 5729 5726 5723 5719 5713 5706 5702 5700 5695 5689 5684 5679 5674 5670 5664 5658 5652 5646 5641 5634 5627 5619 5611 5604 5597 5589 5581 5572 5565 5557 5550 5542 5533 5524 5514 5505 5495 5486 5476 5465 5454 5444 5433 5422 5412 5403 5395 5389 5382 5376 5371 5366 5363 5361 5358 5355 5352 5350 5347 5345 5343 5340 5338 5336 5333 5330 5327
5797 5794 5791 5788 5785 5782 5779 5776 5772 5768 5765 5760 5756 5752 5748 5743 5739 5734 5730 5726 5722 5720 5717 5712 5704 5699 5696 5692 5686 5682 5677 5672 5667 5661 5655 5649 5643 5637 5630 5622 5615 5607 5600 5593 5585 5577 5569 5561 5554 5546 5538 5529 5520 5511 5501 5492 5482 5473 5463 5452 5442 5431 5421 5412 5402 5393 5385 5378 5372 5367 5363 5359 5356 5354 5351 5348 5346 5343 5341 5338 5336 5334 5332 5330 5327 5324
5794 5791 5788 5785 5782 5779 5776 5773 5769 5765 5761 5757 5753 5749 5745 5741 5737 5732 5728 5723 5719 5716 5713 5710 5703 5697 5693 5688 5683 5679 5674 5669 5663 5657 5651 5645 5639 5633 5625 5618 5610 5603 5596 5589 5582 5574 5565 5557 5549 5541 5533 5524 5515 5506 5497 5488 5478 5469 5460 5450 5440 5429 5419 5409 5400 5390 5381 5374 5368 5363 5359 5356 5352 5350 5347 5344 5342 5340 5337 5335 5332 5330 5328 5326 5324 5321
5791 5789 5786 5783 5780 5777 5773 5770 5767 5763 5758 5754 5750 5746 5742 5738 5734 5730 5725 5720 5715 5710 5708 5705 5700 5693 5690 5686 5680 5675 5670 5663 5658 5652 5647 5641 5635 5629 5621 5613 5607 5600 5593 5586 5578 5570 5562 5554 5546 5538 5530 5521 5511 5502 5492 5483 5475 5466 5457 5447 5436 5426 5415 5405 5396 5387 5378 5370 5364 5359 5356 5352 5349 5346 5343 5341 5338 5336 5333 5331 5329 5327 5325 5323 5321 5318
5789 5786 5783 5781 5777 5774 5771 5768 5764 5760 5756 5752 5747 5743 5739 5735 5730 5726 5721 5717 5712 5707 5703 5701 5695 5688 5685 5681 5675 5670 5665 5659 5654 5648 5643 5637 5631 5624 5616 5610 5604 5597 5591 5583 5575 5567 5559 5552 5544 5535 5526 5517 5508 5498 5489 5480 5472 5463 5453 5443 5433 5423 5413 5403 5393 5384 5375 5368 5362 5357 5353 5349 5346 5343 5340 5338 5335 5332 5330 5327 5325 5323 5322 5320 5318 5316
5786 5784 5781 5778 5775 5772 5769 5765 5762 5758 5754 5749 5745 5741 5736 5732 5727 5722 5717 5712 5708 5703 5699 5698 5694 5685 5679 5676 5670 5665 5661 5655 5650 5645 5639 5633 5626 5619 5613 5607 5601 5595 5588 5581 5572 5565 5557 5549 5541 5532 5523 5513 5504 5495 5486 5477 5469 5459 5449 5440 5430 5420 5411 5402 5392 5382 5373 5366 5360 5355 5350 5347 5344 5341 5338 5335 5332 5329 5326 5324 5322 5320 5319 5317 5315 5313
5784 5781 5778 5775 5772 5769 5766 5762 5759 5755 5751 5747 5743 5738 5733 5728 5723 5718 5714 5709 5705 5700 5694 5692 5692 5684 5675 5671 5667 5662 5658 5653 5648 5642 5636 5629 5623 5617 5611 5605 5600 5593 5586 5577 5569 5562 5554 5546 5537 5528 5519 5510 5502 5493 5484 5475 5466 5457 5447 5438 5429 5419 5410 5400 5391 5381 5372 5364 5358 5353 5349 5345 5341 5338 5335 5332 5329 5326 5323 5321 5320 5318 5317 5315 5313 5311
5781 5778 5775 5772 5769 5766 5763 5759 5756 5752 5748 5744 5739 5735 5730 5725 5720 5716 5712 5707 5703 5698 5691 5686 5686 5682 5674 5669 5665 5660 5656 5650 5645 5640 5633 5627 5621 5615 5609 5604 5598 5591 5582 5574 5566 5558 5550 5542 5534 5525 5516 5507 5499 5490 5481 5472 5463 5455 5446 5437 5428 5419 5410 5400 5391 5381 5372 5364 5357 5352 5347 5343 5340 5336 5333 5329 5326 5323 5321 5319 5317 5316 5315 5313 5311 5310
5778 5776 5773 5770 5766 5763 5760 5756 5753 5749 5745 5741 5737 5732 5727 5722 5717 5713 5708 5704 5700 5697 5690 5683 5682 5680 5672 5667 5663 5657 5652 5647 5642 5637 5630 5624 5619 5613 5608 5602 5595 5587 5579 5571 5563 5555 5546 5539 5531 5523 5514 5505 5497 5488 5479 5470 5461 5453 5444 5436 5427 5418 5409 5400 5390 5381 5372 5364 5357 5351 5347 5342 5338 5334 5330 5327 5323 5321 5318 5317 5316 5315 5313 5312 5310 5308
5775 5773 5770 5767 5763 5760 5757 5754 5750 5747 5742 5738 5733 5729 5725 5720 5715 5710 5705 5701 5697 5694 5689 5681 5678 5677 5670 5664 5660 5654 5650 5645 5639 5633 5627 5621 5616 5611 5605 5598 5591 5583 5575 5567 5560 5551 5543 5536 5528 5520 5512 5503 5494 5485 5476 5468 5459 5451 5443 5435 5426 5417 5408 5399 5389 5380 5371 5363 5356 5351 5346 5341 5336 5332 5328 5324 5321 5318 5316 5315 5314 5313 5312 5311 5309 5307
5773 5770 5767 5765 5761 5757 5754 5751 5747 5743 5739 5734 5730 5726 5722 5718 5713 5708 5703 5698 5694 5691 5687 5679 5674 5674 5669 5662 5658 5652 5647 5642 5635 5630 5625 5619 5613 5607 5601 5594 5587 5579 5571 5564 5556 5549 5541 5533 5526 5518 5509 5501 5492 5483 5474 5466 5457 5450 5442 5434 5425 5416 5407 5398 5389 5379 5371 5363 5356 5350 5345 5340 5335 5331 5326 5323 5320 5317 5316 5315 5314 5313 5311 5310 5308 5306
5769 5766 5763 5761 5758 5755 5751 5747 5743 5739 5735 5731 5726 5722 5719 5714 5710 5706 5701 5695 5690 5688 5685 5678 5671 5670 5666 5660 5655 5649 5643 5638 5632 5627 5622 5616 5610 5603 5597 5590 5583 5575 5568 5561 5554 5546 5539 5531 5523 5515 5507 5498 5489 5480 5472 5464 5456 5448 5440 5432 5424 5415 5406 5397 5388 5379 5370 5363 5356 5350 5344 5339 5335 5331 5327 5323 5320 5318 5316 5315 5314 5312 5311 5309 5307 5305
5766 5763 5759 5757 5754 5749 5746 5742 5738 5735 5731 5727 5723 5719 5716 5712 5707 5703 5698 5693 5687 5684 5683 5677 5669 5668 5665 5659 5653 5647 5641 5636 5630 5624 5618 5612 5606 5599 5593 5586 5579 5572 5565 5558 5551 5544 5536 5528 5521 5513 5504 5495 5487 5479 5471 5463 5455 5446 5438 5430 5422 5414 5405 5396 5388 5379 5370 5363 5356 5350 5344 5339 5335 5331 5328 5324 5321 5319 5317 5315 5313 5312 5310 5308 5306 5305
5763 5760 5756 5753 5751 5746 5742 5739 5735 5732 5729 5725 5720 5716 5713 5709 5705 5701 5696 5690 5684 5681 5680 5675 5667 5663 5661 5657 5652 5646 5640 5634 5628 5621 5615 5608 5602 5595 5589 5582 5576 5569 5562 5555 5548 5541 5534 5526 5518 5510 5502 5493 5485 5477 5469 5461 5453 5445 5437 5429 5421 5413 5404 5396 5388 5379 5370 5363 5356 5350 5345 5340 5336 5333 5329 5326 5323 5320 5318 5315 5314 5312 5310 5308 5306 5304
5760 5757 5753 5750 5747 5744 5740 5736 5732 5729 5726 5722 5717 5713 5710 5706 5702 5699 5694 5688 5682 5677 5676 5672 5665 5659 5655 5652 5647 5642 5636 5632 5625 5618 5612 5605 5598 5592 5585 5579 5573 5566 5559 5552 5545 5539 5531 5524 5516 5508 5499 5491 5483 5475 5467 5459 5451 5443 5435 5428 5420 5412 5403 5395 5387 5379 5370 5363 5357 5351 5346 5341 5337 5334 5331 5327 5324 5321 5318 5316 5314 5312 5310 5308 5306 5304
5756 5754 5750 5747 5744 5741 5736 5733 5730 5726 5723 5719 5714 5710 5707 5703 5699 5696 5692 5686 5679 5674 5671 5668 5663 5657 5651 5647 5644 5638 5632 5627 5621 5614 5608 5601 5594 5588 5582 5576 5570 5563 5557 5550 5543 5536 5529 5522 5514 5505 5497 5489 5481 5473 5465 5457 5449 5441 5433 5426 5418 5410 5402 5394 5387 5379 5371 5364 5358 5352 5347 5342 5339 5336 5332 5328 5325 5322 5319 5317 5314 5312 5310 5308 5306 5303
5753 5750 5747 5743 5742 5739 5733 5729 5726 5723 5720 5717 5712 5707 5703 5700 5696 5693 5689 5683 5676 5671 5668 5663 5660 5656 5648 5642 5639 5635 5629 5623 5616 5610 5604 5598 5591 5585 5579 5573 5567 5561 5554 5548 5541 5534 5526 5519 5511 5503 5495 5487 5480 5471 5463 5455 5447 5440 5432 5424 5416 5409 5401 5394 5387 5379 5372 5365 5359 5353 5348 5343 5340 5337 5333 5329 5326 5323 5320 5317 5315 5312 5310 5308 5305 5303
5749 5746 5743 5740 5738 5736 5731 5726 5723 5720 5717 5714 5709 5703 5699 5696 5693 5689 5686 5680 5673 5668 5665 5660 5655 5652 5647 5639 5634 5630 5625 5619 5613 5606 5601 5595 5588 5582 5576 5569 5564 5558 5551 5545 5538 5531 5523 5515 5508 5500 5492 5485 5478 5470 5462 5454 5446 5438 5430 5422 5415 5408 5401 5393 5386 5379 5372 5365 5359 5354 5349 5344 5341 5338 5334 5330 5327 5324 5321 5318 5315 5313 5310 5308 5306 5304
5745 5742 5739 5735 5733 5732 5728 5723 5720 5717 5714 5710 5705 5700 5696 5692 5688 5685 5683 5677 5670 5664 5662 5657 5651 5647 5642 5636 5631 5626 5621 5615 5609 5603 5597 5591 5584 5578 5571 5565 5560 5554 5548 5542 5535 5527 5520 5512 5504 5497 5490 5483 5476 5468 5460 5452 5444 5437 5429 5421 5414 5407 5400 5393 5386 5379 5372 5366 5360 5355 5350 5345 5341 5338 5335 5331 5328 5324 5321 5319 5316 5313 5311 5309 5307 5305
5741 5737 5735 5731 5729 5727 5724 5719 5716 5713 5710 5706 5701 5696 5692 5688 5683 5681 5680 5675 5668 5662 5658 5654 5649 5644 5638 5632 5627 5622 5617 5612 5606 5599 5593 5587 5581 5574 5568 5562 5556 5551 5545 5538 5531 5524 5517 5509 5501 5494 5488 5481 5473 5465 5458 5450 5443 5435 5428 5420 5413 5406 5400 5393 5386 5379 5373 5366 5361 5356 5351 5346 5342 5339 5336 5332 5328 5325 5322 5319 5317 5314 5312 5310 5307 5305
5737 5733 5730 5727 5724 5723 5720 5715 5712 5709 5706 5702 5697 5692 5688 5684 5680 5677 5676 5673 5665 5660 5656 5651 5646 5641 5635 5629 5622 5617 5613 5608 5602 5595 5588 5583 5577 5570 5565 5559 5553 5547 5541 5535 5528 5520 5513 5506 5499 5492 5485 5478 5471 5463 5455 5448 5441 5434 5426 5419 5412 5405 5399 5392 5386 5379 5373 5367 5361 5357 5352 5347 5343 5340 5336 5332 5329 5325 5323 5320 5317 5315 5312 5310 5308 5306
5733 5729 5726 5722 5719 5717 5715 5711 5708 5706 5703 5697 5692 5688 5685 5681 5677 5673 5673 5671 5663 5656 5653 5648 5643 5637 5631 5625 5619 5613 5608 5604 5598 5591 5585 5579 5573 5566 5561 5555 5549 5543 5537 5531 5524 5517 5510 5503 5496 5490 5483 5476 5469 5461 5454 5446 5439 5432 5425 5417 5410 5404 5398 5391 5385 5379 5373 5367 5361 5357 5353 5348 5344 5340 5337 5333 5330 5326 5323 5321 5318 5315 5313 5311 5308 5306
5729 5726 5722 5718 5715 5712 5710 5706 5702 5702 5700 5694 5688 5685 5682 5678 5673 5669 5669 5668 5661 5653 5648 5643 5638 5633 5626 5621 5615 5609 5603 5599 5595 5589 5581 5575 5570 5563 5557 5551 5545 5539 5533 5527 5520 5513 5507 5500 5494 5487 5480 5474 5467 5460 5453 5445 5438 5430 5423 5416 5410 5403 5397 5391 5384 5378 5372 5366 5361 5357 5353 5349 5345 5341 5337 5334 5331 5327 5324 5321 5319 5316 5314 5311 5309 5306
5725 5722 5718 5714 5711 5707 5705 5702 5699 5697 5695 5690 5684 5681 5677 5673 5669 5663 5662 5663 5657 5648 5643 5638 5633 5628 5621 5616 5611 5605 5598 5594 5591 5586 5579 5573 5567 5560 5554 5548 5542 5536 5530 5523 5517 5511 5504 5498 5491 5485 5478 5471 5465 5458 5451 5443 5436 5429 5422 5416 5409 5402 5396 5390 5384 5377 5372 5366 5361 5356 5353 5349 5345 5341 5337 5334 5331 5328 5325 5322 5319 5316 5314 5311 5309 5306
5722 5718 5714 5710 5707 5703 5699 5697 5694 5692 5690 5684 5679 5676 5672 5668 5664 5658 5654 5655 5651 5644 5638 5632 5627 5622 5616 5610 5605 5599 5593 5588 5585 5582 5576 5569 5564 5557 5551 5545 5539 5533 5526 5520 5514 5508 5502 5495 5489 5482 5476 5469 5462 5456 5449 5442 5434 5427 5420 5414 5407 5400 5394 5388 5383 5377 5371 5365 5360 5355 5352 5348 5345 5341 5337 5334 5331 5328 5325 5322 5319 5316 5313 5311 5309 5306
5718 5715 5711 5706 5703 5699 5695 5692 5690 5687 5684 5679 5674 5672 5668 5663 5659 5653 5648 5647 5644 5638 5632 5626 5621 5615 5609 5604 5599 5593 5587 5582 5578 5576 5570 5565 5559 5554 5548 5542 5536 5529 5523 5517 5511 5504 5498 5492 5486 5479 5473 5466 5460 5453 5447 5440 5433 5425 5418 5412 5405 5399 5393 5387 5381 5375 5370 5364 5359 5355 5350 5347 5344 5340 5337 5333 5330 5328 5325 5322 5318 5316 5313 5310 5308 5306
5714 5710 5707 5703 5700 5696 5692 5690 5687 5684 5680 5675 5671 5668 5663 5658 5654 5647 5641 5639 5635 5630 5624 5619 5615 5610 5604 5598 5594 5589 5583 5576 5572 5569 5565 5560 5555 5549 5543 5538 5532 5525 5519 5513 5507 5500 5494 5488 5482 5476 5469 5463 5457 5451 5444 5437 5431 5423 5417 5410 5404 5398 5391 5385 5380 5374 5369 5363 5358 5354 5349 5345 5342 5339 5336 5332 5329 5326 5324 5321 5318 5315 5312 5309 5307 5305
5710 5706 5703 5699 5696 5693 5689 5686 5684 5681 5677 5672 5668 5664 5658 5653 5649 5643 5637 5633 5629 5625 5619 5614 5610 5605 5599 5594 5590 5585 5580 5574 5568 5564 5560 5554 5549 5544 5538 5533 5527 5521 5514 5508 5502 5497 5491 5485 5479 5473 5466 5460 5454 5448 5442 5435 5429 5422 5415 5409 5402 5396 5390 5384 5378 5373 5367 5362 5357 5353 5348 5344 5340 5337 5334 5331 5328 5325 5322 5320 5317 5314 5312 5309 5306 5304
5705 5701 5698 5695 5692 5689 5686 5683 5679 5677 5674 5669 5664 5659 5654 5649 5644 5638 5633 5630 5626 5621 5616 5611 5606 5601 5596 5590 5586 5581 5576 5571 5564 5559 5554 5548 5543 5538 5533 5527 5521 5515 5509 5504 5498 5492 5487 5481 5475 5469 5464 5458 5452 5446 5440 5433 5427 5420 5413 5407 5400 5394 5388 5382 5377 5371 5366 5361 5356 5352 5347 5343 5339 5335 5332 5329 5326 5323 5321 5318 5316 5313 5311 5308 5305 5303
5701 5697 5695 5692 5689 5685 5683 5679 5674 5670 5668 5664 5659 5654 5650 5645 5639 5633 5628 5626 5623 5618 5612 5607 5603 5597 5591 5586 5581 5576 5571 5566 5560 5553 5548 5543 5537 5532 5527 5521 5516 5510 5505 5499 5494 5488 5483 5477 5472 5466 5461 5455 5449 5443 5437 5430 5424 5418 5411 5405 5398 5392 5387 5381 5375 5370 5365 5360 5355 5350 5346 5341 5337 5333 5329 5327 5324 5321 5319 5316 5314 5312 5309 5307 5304 5302
5698 5695 5692 5689 5686 5682 5679 5676 5672 5666 5663 5659 5655 5651 5647 5641 5635 5629 5623 5620 5618 5614 5607 5601 5597 5593 5587 5581 5576 5571 5565 5560 5555 5548 5542 5537 5531 5526 5521 5516 5510 5505 5500 5495 5489 5484 5479 5473 5468 5463 5457 5451 5445 5439 5433 5427 5421 5415 5409 5403 5396 5390 5385 5379 5373 5368 5363 5358 5353 5348 5344 5339 5335 5331 5327 5324 5321 5318 5316 5314 5312 5310 5307 5305 5303 5301
5695 5692 5689 5686 5683 5679 5676 5673 5668 5664 5660 5655 5651 5648 5643 5637 5631 5626 5620 5615 5612 5609 5603 5596 5591 5588 5582 5576 5570 5565 5560 5555 5549 5543 5537 5532 5526 5520 5515 5511 5505 5500 5495 5490 5485 5480 5475 5469 5464 5459 5453 5448 5442 5436 5430 5424 5418 5413 5407 5401 5394 5388 5382 5377 5372 5366 5361 5356 5351 5347 5342 5338 5333 5329 5325 5321 5318 5315 5313 5311 5309 5307 5305 5303 5301 5299
5691 5688 5685 5682 5680 5676 5674 5669 5663 5659 5657 5654 5649 5643 5637 5632 5627 5622 5617 5612 5608 5604 5598 5592 5586 5582 5577 5571 5564 5559 5554 5549 5543 5537 5532 5526 5521 5515 5510 5505 5500 5495 5490 5485 5480 5475 5470 5465 5460 5455 5449 5444 5438 5432 5427 5421 5416 5410 5404 5398 5392 5386 5380 5375 5369 5364 5359 5354 5349 5344 5340 5336 5331 5327 5322 5318 5315 5312 5310 5308 5306 5304 5302 5300 5298 5297
5688 5684 5680 5678 5675 5672 5670 5666 5660 5655 5654 5651 5645 5639 5633 5629 5624 5618 5613 5608 5603 5598 5593 5586 5580 5576 5571 5565 5558 5552 5548 5543 5536 5531 5526 5521 5515 5510 5505 5500 5495 5490 5485 5480 5475 5470 5465 5460 5455 5450 5445 5439 5434 5428 5423 5418 5412 5406 5401 5395 5389 5384 5378 5372 5366 5361 5356 5351 5346 5342 5338 5334 5329 5325 5320 5316 5312 5309 5306 5304 5302 5300 5299 5297 5296 5294
5683 5680 5675 5673 5671 5667 5663 5660 5655 5651 5650 5647 5641 5634 5630 5625 5620 5615 5609 5603 5597 5592 5587 5581 5575 5570 5564 5559 5552 5546 5542 5537 5530 5524 5520 5515 5509 5504 5499 5495 5490 5485 5480 5475 5470 5465 5460 5455 5450 5446 5441 5435 5430 5424 5419 5413 5408 5402 5397 5392 5386 5381 5375 5369 5364 5358 5353 5348 5344 5339 5335 5331 5327 5323 5318 5314 5310 5306 5303 5300 5298 5296 5295 5293 5292 5291
5678 5675 5670 5667 5665 5662 5658 5654 5648 5645 5645 5643 5637 5630 5625 5619 5613 5608 5603 5598 5592 5586 5581 5577 5572 5564 5557 5552 5545 5539 5535 5531 5524 5518 5513 5509 5503 5498 5494 5489 5484 5479 5474 5469 5464 5459 5454 5450 5445 5441 5435 5430 5425 5419 5414 5409 5403 5398 5393 5388 5382 5377 5372 5366 5361 5356 5350 5345 5340 5336 5332 5328 5324 5320 5316 5311 5307 5303 5300 5297 5294 5292 5290 5289 5288 5287
5674 5671 5666 5661 5659 5656 5652 5647 5642 5637 5635 5633 5628 5622 5618 5612 5605 5601 5596 5591 5586 5580 5574 5569 5565 5560 5553 5546 5538 5532 5528 5524 5518 5512 5507 5503 5498 5493 5488 5483 5478 5473 5468 5463 5459 5454 5449 5444 5439 5435 5430 5425 5420 5415 5409 5404 5399 5393 5388 5383 5378 5373 5368 5363 5358 5353 5347 5342 5337 5332 5328 5325 5321 5317 5313 5309 5305 5300 5297 5294 5291 5288 5286 5285 5283 5282
5671 5668 5663 5658 5654 5650 5646 5642 5637 5631 5627 5624 5620 5615 5611 5605 5599 5594 5589 5583 5579 5573 5567 5560 5555 5551 5547 5541 5534 5525 5520 5517 5512 5506 5501 5498 5492 5487 5482 5478 5472 5467 5462 5457 5452 5448 5443 5438 5433 5429 5424 5419 5414 5409 5404 5399 5394 5389 5384 5379 5373 5368 5364 5359 5354 5349 5344 5339 5334 5329 5325 5321 5317 5314 5310 5306 5302 5298 5294 5290 5287 5284 5282 5280 5278 5277